KLM95V EHAM-EPKK

Flight info

Callsign KLM95V
Flight time N/A
Altitude 37000
Route EDUPO Z739 MISGO DCT EKSAK DCT SWALM DCT VELIS DCT OKG DCT PADKA
Aircraft B738/M-SDE1FGHIRWXY/LB1

Departure

Time 2026-04-19 09:52
Airport Amsterdam Airport Schiphol (EHAM)

Arrival

Time N/A
Airport Kraków John Paul II International Airport (EPKK)
Time Latitude Longitude Altitude Speed Heading
2026-04-19 09:28 52.30375 4.76391 13 ft 0 kts 238°
2026-04-19 09:37 52.30375 4.76392 13 ft 1 kts 238°
2026-04-19 09:38 52.30383 4.76413 13 ft 3 kts 236°
2026-04-19 09:38 52.30395 4.76439 13 ft 3 kts 221°
2026-04-19 09:38 52.30409 4.76453 13 ft 3 kts 174°
2026-04-19 09:38 52.30415 4.76451 13 ft 0 kts 158°
2026-04-19 09:40 52.30412 4.76455 13 ft 4 kts 150°
2026-04-19 09:40 52.30350 4.76526 13 ft 14 kts 151°
2026-04-19 09:41 52.30275 4.76472 13 ft 14 kts 238°
2026-04-19 09:41 52.30222 4.76333 13 ft 15 kts 238°
2026-04-19 09:41 52.30158 4.76162 13 ft 20 kts 238°
2026-04-19 09:41 52.30082 4.75967 13 ft 20 kts 238°
2026-04-19 09:42 52.30011 4.75780 13 ft 19 kts 238°
2026-04-19 09:42 52.29943 4.75601 13 ft 18 kts 237°
2026-04-19 09:42 52.29876 4.75426 13 ft 19 kts 238°
2026-04-19 09:42 52.29834 4.75238 13 ft 18 kts 283°
2026-04-19 09:43 52.29910 4.75065 13 ft 21 kts 311°
2026-04-19 09:43 52.30007 4.74888 13 ft 21 kts 311°
2026-04-19 09:43 52.30107 4.74703 13 ft 23 kts 311°
2026-04-19 09:43 52.30214 4.74506 13 ft 24 kts 311°
2026-04-19 09:44 52.30325 4.74299 13 ft 25 kts 312°
2026-04-19 09:44 52.30470 4.74198 13 ft 23 kts
2026-04-19 09:44 52.30632 4.74211 13 ft 24 kts
2026-04-19 09:44 52.30802 4.74228 13 ft 24 kts
2026-04-19 09:45 52.30964 4.74243 13 ft 23 kts
2026-04-19 09:45 52.31120 4.74257 13 ft 23 kts
2026-04-19 09:45 52.31284 4.74272 13 ft 24 kts
2026-04-19 09:45 52.31455 4.74288 13 ft 25 kts
2026-04-19 09:46 52.31632 4.74305 13 ft 26 kts
2026-04-19 09:46 52.31813 4.74323 13 ft 26 kts
2026-04-19 09:46 52.31983 4.74335 13 ft 23 kts 348°
2026-04-19 09:46 52.32035 4.74104 13 ft 27 kts 273°
2026-04-19 09:47 52.32046 4.73810 13 ft 25 kts 273°
2026-04-19 09:47 52.32055 4.73525 13 ft 26 kts 274°
2026-04-19 09:47 52.32139 4.73285 13 ft 24 kts 320°
2026-04-19 09:47 52.32263 4.73112 13 ft 24 kts 320°
2026-04-19 09:48 52.32392 4.72930 13 ft 25 kts 319°
2026-04-19 09:48 52.32528 4.72739 13 ft 26 kts 319°
2026-04-19 09:48 52.32667 4.72539 13 ft 27 kts 314°
2026-04-19 09:48 52.32794 4.72307 13 ft 28 kts 312°
2026-04-19 09:49 52.32919 4.72079 13 ft 26 kts 311°
2026-04-19 09:49 52.33030 4.71871 13 ft 23 kts 311°
2026-04-19 09:49 52.33128 4.71687 13 ft 17 kts 305°
2026-04-19 09:49 52.33134 4.71508 13 ft 16 kts 243°
2026-04-19 09:50 52.33166 4.71364 13 ft 13 kts 309°
2026-04-19 09:50 52.33223 4.71251 13 ft 13 kts 311°
2026-04-19 09:50 52.33282 4.71143 13 ft 13 kts 311°
2026-04-19 09:50 52.33339 4.71037 13 ft 12 kts 313°
2026-04-19 09:51 52.33408 4.70948 13 ft 13 kts 347°
2026-04-19 09:51 52.33461 4.70946 13 ft 0 kts
2026-04-19 09:51 52.33467 4.70947 13 ft 5 kts
2026-04-19 09:52 52.33650 4.70963 13 ft 57 kts
2026-04-19 09:52 52.34272 4.71020 13 ft 120 kts
2026-04-19 09:52 52.35266 4.71119 191 ft 156 kts
2026-04-19 09:52 52.36342 4.71234 988 ft 151 kts
2026-04-19 09:53 52.37392 4.71360 1704 ft 155 kts
2026-04-19 09:53 52.38543 4.71465 2140 ft 178 kts
2026-04-19 09:53 52.39868 4.71578 2478 ft 204 kts
2026-04-19 09:53 52.41380 4.71771 2889 ft 227 kts
2026-04-19 09:54 52.42932 4.72561 3558 ft 241 kts 21°
2026-04-19 09:54 52.44452 4.73830 4344 ft 249 kts 26°
2026-04-19 09:54 52.45975 4.75254 5197 ft 254 kts 28°
2026-04-19 09:54 52.47323 4.77177 6022 ft 264 kts 51°
2026-04-19 09:55 52.48085 4.79954 6836 ft 274 kts 73°
2026-04-19 09:55 52.48368 4.83077 7645 ft 280 kts 81°
2026-04-19 09:55 52.48531 4.86289 8447 ft 284 kts 83°
2026-04-19 09:55 52.48364 4.89557 9208 ft 293 kts 103°
2026-04-19 09:56 52.47433 4.92548 9971 ft 299 kts 127°
2026-04-19 09:56 52.45955 4.94899 10734 ft 302 kts 140°
2026-04-19 09:56 52.44250 4.96988 11395 ft 310 kts 145°
2026-04-19 09:56 52.42410 4.99019 11792 ft 329 kts 147°
2026-04-19 09:57 52.40465 5.01188 12122 ft 348 kts 146°
2026-04-19 09:57 52.38421 5.03522 12409 ft 368 kts 146°
2026-04-19 09:57 52.36270 5.05996 12687 ft 386 kts 146°
2026-04-19 09:57 52.34077 5.08656 13134 ft 398 kts 141°
2026-04-19 09:58 52.32017 5.11719 13787 ft 404 kts 135°
2026-04-19 09:58 52.30129 5.15154 14470 ft 409 kts 130°
2026-04-19 09:58 52.28267 5.18702 15139 ft 413 kts 132°
2026-04-19 09:58 52.26338 5.22213 15802 ft 418 kts 133°
2026-04-19 09:59 52.24397 5.25777 16467 ft 422 kts 130°
2026-04-19 09:59 52.22592 5.29587 17092 ft 427 kts 126°
2026-04-19 09:59 52.20899 5.33601 17704 ft 432 kts 124°
2026-04-19 09:59 52.19208 5.37680 18321 ft 435 kts 125°
2026-04-19 10:00 52.17460 5.41741 18924 ft 439 kts 126°
2026-04-19 10:00 52.15678 5.45822 19499 ft 443 kts 126°
2026-04-19 10:00 52.13881 5.49926 20056 ft 448 kts 126°
2026-04-19 10:00 52.12065 5.54070 20599 ft 451 kts 126°
2026-04-19 10:01 52.10239 5.58242 21165 ft 454 kts 126°
2026-04-19 10:01 52.08395 5.62444 21665 ft 458 kts 126°
2026-04-19 10:01 52.06534 5.66671 22166 ft 461 kts 127°
2026-04-19 10:01 52.04541 5.70780 22621 ft 465 kts 131°
2026-04-19 10:02 52.02383 5.74708 23094 ft 468 kts 133°
2026-04-19 10:02 52.00229 5.78686 23559 ft 471 kts 132°
2026-04-19 10:02 51.98071 5.82715 23966 ft 475 kts 132°
2026-04-19 10:02 51.95906 5.86786 24400 ft 478 kts 132°
2026-04-19 10:03 51.93720 5.90861 24809 ft 481 kts 132°
2026-04-19 10:03 51.91513 5.94956 25178 ft 484 kts 132°
2026-04-19 10:03 51.89289 5.99074 25564 ft 487 kts 132°
2026-04-19 10:03 51.87050 6.03215 25936 ft 490 kts 132°
2026-04-19 10:04 51.84800 6.07380 26295 ft 492 kts 132°
2026-04-19 10:04 51.82527 6.11549 26614 ft 496 kts 133°
2026-04-19 10:04 51.80236 6.15732 26959 ft 498 kts 133°
2026-04-19 10:04 51.77933 6.19931 27290 ft 500 kts 133°
2026-04-19 10:05 51.75656 6.24101 27621 ft 502 kts 132°
2026-04-19 10:05 51.73352 6.28334 28037 ft 502 kts 133°
2026-04-19 10:05 51.71036 6.32554 28472 ft 501 kts 133°
2026-04-19 10:05 51.68722 6.36755 28921 ft 500 kts 133°
2026-04-19 10:06 51.66415 6.40939 29346 ft 499 kts 133°
2026-04-19 10:06 51.64104 6.45127 29723 ft 499 kts 133°
2026-04-19 10:06 51.61802 6.49301 30150 ft 498 kts 133°
2026-04-19 10:06 51.59524 6.53491 30544 ft 498 kts 133°
2026-04-19 10:07 51.57234 6.57654 30935 ft 497 kts 134°
2026-04-19 10:07 51.54936 6.61796 31356 ft 495 kts 134°
2026-04-19 10:07 51.52637 6.65920 31744 ft 494 kts 134°
2026-04-19 10:07 51.50339 6.70035 32090 ft 494 kts 134°
2026-04-19 10:08 51.48041 6.74141 32450 ft 494 kts 134°
2026-04-19 10:08 51.45748 6.78237 32810 ft 493 kts 134°
2026-04-19 10:08 51.43484 6.82367 33152 ft 494 kts 131°
2026-04-19 10:08 51.41479 6.86832 33525 ft 494 kts 124°
2026-04-19 10:09 51.39799 6.91645 33834 ft 496 kts 117°
2026-04-19 10:09 51.38867 6.94984 34050 ft 496 kts 114°
2026-04-19 10:09 51.37641 7.00160 34365 ft 497 kts 110°
2026-04-19 10:09 51.36523 7.05386 34700 ft 496 kts 110°
2026-04-19 10:10 51.35403 7.10598 35039 ft 495 kts 110°
2026-04-19 10:10 51.34267 7.15803 35318 ft 495 kts 110°
2026-04-19 10:10 51.33123 7.21000 35665 ft 494 kts 110°
2026-04-19 10:10 51.31976 7.26176 35952 ft 494 kts 110°
2026-04-19 10:11 51.30826 7.31340 36275 ft 493 kts 110°
2026-04-19 10:11 51.29673 7.36500 36541 ft 493 kts 111°
2026-04-19 10:11 51.28531 7.41662 36805 ft 493 kts 110°
2026-04-19 10:11 51.27436 7.46783 37067 ft 493 kts 110°
2026-04-19 10:12 51.26308 7.51965 37196 ft 495 kts 110°
2026-04-19 10:12 51.24013 7.62321 37207 ft 493 kts 111°
2026-04-19 10:13 51.21710 7.72593 37202 ft 491 kts 111°
2026-04-19 10:13 51.19393 7.82856 37201 ft 492 kts 111°
2026-04-19 10:14 51.17065 7.93114 37199 ft 492 kts 111°
2026-04-19 10:14 51.14730 8.03353 37197 ft 491 kts 111°
2026-04-19 10:15 51.12402 8.13578 37191 ft 491 kts 110°
2026-04-19 10:15 51.10086 8.23813 37186 ft 492 kts 111°
2026-04-19 10:16 51.07711 8.34010 37186 ft 491 kts 112°
2026-04-19 10:16 51.05321 8.44196 37186 ft 491 kts 112°
2026-04-19 10:17 51.02879 8.54338 37186 ft 490 kts 115°
2026-04-19 10:17 50.99631 8.63801 37183 ft 487 kts 126°
2026-04-19 10:18 50.95569 8.72284 37176 ft 485 kts 131°
2026-04-19 10:18 50.91355 8.80751 37174 ft 486 kts 130°
2026-04-19 10:19 50.85195 8.93425 37173 ft 486 kts 130°
2026-04-19 10:19 50.81031 9.01838 37176 ft 486 kts 131°
2026-04-19 10:20 50.76859 9.10232 37176 ft 485 kts 131°
2026-04-19 10:20 50.72908 9.18881 37176 ft 489 kts 123°
2026-04-19 10:21 50.70090 9.28742 37176 ft 492 kts 110°
2026-04-19 10:21 50.68101 9.39070 37167 ft 492 kts 108°
2026-04-19 10:22 50.66137 9.49422 37161 ft 493 kts 109°
2026-04-19 10:22 50.64152 9.59681 37157 ft 492 kts 109°
2026-04-19 10:23 50.62141 9.69989 37153 ft 492 kts 109°
2026-04-19 10:23 50.60185 9.80313 37149 ft 492 kts 108°
2026-04-19 10:24 50.58202 9.90617 37144 ft 492 kts 109°
2026-04-19 10:24 50.56201 10.00896 37135 ft 491 kts 108°
2026-04-19 10:25 50.54216 10.11181 37124 ft 491 kts 109°
2026-04-19 10:25 50.52165 10.21433 37117 ft 491 kts 110°
2026-04-19 10:26 50.50102 10.31663 37113 ft 491 kts 110°
2026-04-19 10:26 50.48034 10.41888 37111 ft 491 kts 110°
2026-04-19 10:27 50.45974 10.52110 37109 ft 490 kts 109°
2026-04-19 10:27 50.43910 10.62316 37107 ft 491 kts 110°
2026-04-19 10:28 50.41846 10.72443 37106 ft 491 kts 110°
2026-04-19 10:28 50.40684 10.78117 37106 ft 491 kts 110°
2026-04-19 10:48 50.39286 10.84924 37105 ft 491 kts 110°
2026-04-19 10:49 50.37187 10.95098 37105 ft 491 kts 110°
2026-04-19 10:49 50.35476 11.03579 37097 ft 491 kts 109°
2026-04-19 10:50 50.33434 11.13777 37079 ft 490 kts 110°